TimeCST,TemperatureF,Dew PointF,Humidity,Sea Level PressureIn,VisibilityMPH,Wind Direction,Wind SpeedMPH,Gust SpeedMPH,PrecipitationIn,Events,Conditions,WindDirDegrees,DateUTC
12:53 AM,52.0,30.0,43,29.83,10.0,South,11.5,-,N/A,,Clear,190,2013-02-18 06:53:00
1:53 AM,52.0,32.0,47,29.83,10.0,South,17.3,24.2,N/A,,Clear,190,2013-02-18 07:53:00
2:53 AM,52.0,36.0,54,29.82,10.0,South,15.0,21.9,N/A,,Clear,190,2013-02-18 08:53:00
3:53 AM,52.0,39.0,61,29.79,10.0,South,23.0,33.4,N/A,,Clear,190,2013-02-18 09:53:00
4:53 AM,51.1,41.0,68,29.78,10.0,South,13.8,27.6,N/A,,Clear,190,2013-02-18 10:53:00
5:53 AM,51.8,42.8,71,29.77,10.0,South,18.4,28.8,N/A,,Overcast,180,2013-02-18 11:53:00
6:53 AM,52.0,43.0,71,29.74,10.0,South,16.1,28.8,N/A,,Overcast,190,2013-02-18 12:53:00
7:53 AM,53.6,44.6,72,29.75,10.0,South,21.9,28.8,N/A,,Overcast,190,2013-02-18 13:53:00
8:53 AM,53.1,46.0,77,29.75,10.0,South,23.0,29.9,N/A,,Overcast,190,2013-02-18 14:53:00
9:49 AM,53.6,46.4,77,29.74,10.0,South,19.6,26.5,N/A,,Overcast,180,2013-02-18 15:49:00
9:53 AM,54.0,46.9,77,29.73,10.0,South,17.3,26.5,N/A,,Overcast,180,2013-02-18 15:53:00
10:14 AM,53.6,46.4,77,29.73,10.0,South,16.1,27.6,N/A,,Overcast,180,2013-02-18 16:14:00
10:49 AM,55.4,48.2,77,29.72,10.0,South,16.1,24.2,N/A,,Overcast,180,2013-02-18 16:49:00
10:53 AM,55.0,48.0,77,29.71,10.0,South,16.1,24.2,N/A,,Overcast,180,2013-02-18 16:53:00
11:35 AM,53.6,48.2,82,29.71,10.0,South,11.5,19.6,0.00,Rain,Light Rain,180,2013-02-18 17:35:00
11:53 AM,54.0,50.0,86,29.69,9.0,South,13.8,23.0,0.00,Rain,Light Rain,180,2013-02-18 17:53:00
12:53 PM,55.9,51.1,84,29.65,10.0,SSW,16.1,25.3,0.06,Rain,Light Rain,200,2013-02-18 18:53:00
1:30 PM,55.4,53.6,94,29.63,1.8,WSW,10.4,-,0.16,Rain,Heavy Rain,250,2013-02-18 19:30:00
1:34 PM,55.4,53.6,94,29.63,2.0,West,13.8,-,0.17,Rain-Thunderstorm,Thunderstorms and Rain,260,2013-02-18 19:34:00
1:53 PM,55.9,54.0,93,29.62,10.0,WSW,12.7,-,0.24,Thunderstorm,Thunderstorm,250,2013-02-18 19:53:00
2:04 PM,55.4,55.4,100,29.63,10.0,WSW,6.9,-,N/A,Thunderstorm,Overcast,250,2013-02-18 20:04:00
2:23 PM,55.4,55.4,100,29.65,8.0,WSW,11.5,-,0.01,Rain-Thunderstorm,Light Thunderstorms and Rain,240,2013-02-18 20:23:00
2:53 PM,54.0,53.1,97,29.66,10.0,West,13.8,-,0.05,Thunderstorm,Overcast,270,2013-02-18 20:53:00
3:07 PM,55.4,53.6,94,29.67,10.0,West,15.0,23.0,N/A,,Mostly Cloudy,270,2013-02-18 21:07:00
3:53 PM,54.0,37.9,55,29.72,10.0,WNW,20.7,32.2,N/A,,Clear,290,2013-02-18 21:53:00
4:53 PM,50.0,36.0,59,29.79,10.0,NW,21.9,27.6,N/A,,Partly Cloudy,320,2013-02-18 22:53:00
5:53 PM,46.9,34.0,61,29.85,10.0,NW,20.7,27.6,N/A,,Scattered Clouds,310,2013-02-18 23:53:00
6:53 PM,45.0,33.1,63,29.90,10.0,NW,11.5,-,N/A,,Clear,310,2013-02-19 00:53:00
7:53 PM,42.1,32.0,67,29.96,10.0,NW,16.1,24.2,N/A,,Clear,320,2013-02-19 01:53:00
8:53 PM,39.9,30.9,70,30.01,10.0,NW,12.7,18.4,N/A,,Clear,310,2013-02-19 02:53:00
9:53 PM,37.9,30.0,73,30.06,10.0,NNW,10.4,-,N/A,,Partly Cloudy,330,2013-02-19 03:53:00
10:53 PM,35.1,25.0,67,30.10,10.0,NNW,19.6,24.2,N/A,,Clear,330,2013-02-19 04:53:00
11:53 PM,34.0,23.0,64,30.14,10.0,NNW,10.4,-,N/A,,Clear,330,2013-02-19 05:53:00